Home   Weather   Bantam   Past weeks

Flag for Cocos Islands Past Weather in Bantam, Cocos Islands — Yesterday and Last 2 Weeks

Now
79 °F

Partly cloudy.


Feels Like: 81 °F
Forecast: 78 / 83 °F
Wind: 13 mph from Southeast

Location: Cocos Island Airport

Current Time: Dec 11, 2016 at 3:10:32 am

Latest Report: Dec 11, 2016 at 2:32 am


Visibility: 3 mi

Pressure: 29.80 "Hg

Humidity: 74%

Dew Point: 70 °F

Location of BantamLocation

Past Weather in Bantam — Graph

°F

Bantam Temperature Yesterday

Maximum temperature yesterday: 84 °F (at 10:33 am)
Minimum temperature yesterday: 79 °F (at 12:30 am)
Average temperature yesterday: 81 °F

High & Low Weather Summary for the Past Weeks

 TemperatureHumidityPressure
High88 °F (Nov 30, 2:30 pm)100% (Nov 30, 3:30 am)29.89 "Hg (Nov 30, 3:30 am)
Low75 °F (Dec 4, 1:30 am)62% (Nov 26, 8:00 am)29.71 "Hg (Nov 30, 2:30 am)
Average80 °F77%29.82 "Hg
* Reported Nov 26 1:30 am — Dec 11 1:30 am, Bantam, Weather by CustomWeather, © 2016

Note: Actual official high and low records may vary slightly from our data, if they occured in-between our weather recording intervals... More about our weather records

Advertising

Bantam Weather History for the Previous 24 Hours

Scroll right to see more
 ConditionsComfort  
Time TempWeatherWind HumidityBarometerVisibility
1:30 am
Sun, Dec 11
79 °FPassing clouds.13 mph74%29.83 "HgN/A
1:00 am79 °FPassing clouds.14 mph74%29.83 "HgN/A
12:30 am79 °FPassing clouds.15 mph70%29.83 "HgN/A
12:00 am79 °FClear.16 mph70%29.86 "HgN/A
11:30 pm
Sat, Dec 10
79 °FPassing clouds.17 mph74%29.86 "HgN/A
11:00 pm79 °FPassing clouds.16 mph70%29.86 "HgN/A
10:30 pm79 °FMostly cloudy.16 mph74%29.86 "HgN/A
10:00 pm79 °FMostly cloudy.15 mph74%29.86 "HgN/A
9:30 pm81 °FMostly cloudy.15 mph70%29.86 "HgN/A
9:00 pm81 °FMostly cloudy.15 mph70%29.86 "HgN/A
8:30 pm81 °FOvercast.15 mph70%29.83 "HgN/A
8:00 pm81 °FMostly cloudy.17 mph70%29.83 "HgN/A
7:30 pm81 °FPartly cloudy.16 mph70%29.83 "HgN/A
7:00 pm81 °FBroken clouds.15 mph74%29.83 "HgN/A
6:30 pm81 °FPartly sunny.15 mph74%29.80 "HgN/A
6:00 pm81 °FCloudy.15 mph79%29.80 "HgN/A
5:30 pm81 °FBroken clouds.15 mph74%29.77 "HgN/A
5:00 pm82 °FMore clouds than sun.15 mph70%29.77 "HgN/A
4:30 pm82 °FMore clouds than sun.16 mph70%29.77 "HgN/A
4:00 pm82 °FBroken clouds.15 mph74%29.74 "HgN/A
3:30 pm82 °FMore clouds than sun.14 mph70%29.74 "HgN/A
3:00 pm84 °FBroken clouds.15 mph70%29.74 "HgN/A
2:30 pm84 °FScattered clouds.14 mph70%29.77 "HgN/A
1:30 pm84 °FScattered clouds.15 mph66%29.77 "HgN/A
1:00 pm84 °FPartly sunny.15 mph66%29.77 "HgN/A
12:30 pm84 °FScattered clouds.15 mph66%29.80 "HgN/A
12:00 pm84 °FSunny.15 mph66%29.80 "HgN/A
11:30 am84 °FScattered clouds.15 mph66%29.83 "HgN/A
11:00 am82 °FSunny.16 mph70%29.83 "HgN/A
10:33 am84 °FSunny.16 mph66%29.83 "HgN/A
9:30 am82 °FScattered clouds.17 mph70%29.83 "HgN/A
9:00 am82 °FScattered clouds.18 mph70%29.83 "HgN/A
8:30 am82 °FScattered clouds.17 mph70%29.83 "HgN/A
8:00 am81 °FScattered clouds.17 mph74%29.83 "HgN/A
7:30 am81 °FPartly sunny.15 mph79%29.83 "HgN/A
7:00 am81 °FScattered clouds.15 mph79%29.83 "HgN/A
6:30 am79 °FScattered clouds.16 mph79%29.83 "HgN/A
6:00 am79 °FPassing clouds.15 mph79%29.83 "HgN/A
5:30 am79 °FPassing clouds.13 mph79%29.80 "HgN/A
5:00 am79 °FPassing clouds.13 mph79%29.80 "HgN/A
4:30 am79 °FPassing clouds.13 mph79%29.80 "HgN/A
4:00 am79 °FPassing clouds.12 mph84%29.77 "HgN/A
3:30 am79 °FPassing clouds.13 mph79%29.77 "HgN/A
3:00 am79 °FClear.15 mph79%29.77 "HgN/A
Weather by CustomWeather, © 2016

See weather overviewHow to use our weather pages